contact:dominique.lefevre@mio.osupytheas.fr, maurice.libes@osupytheas.fr, didier.mallarino@osupytheas.fr
Project:EMSO http://www.emso-fr.org/EMSO-France
Depth: 2436.0 m
Title:EMSO Ligure Ouest : Data MII capteur OXYGEN
DateTime,Latitude,Longitude,Optode-Type,Optode_Serial,Oxygen,Saturation_Oxygen,Temperature
DateTime,Latitude,Longitude,Optode-Type,Optode_Serial,µmol.l-1,%,degC
2019-06-23T00:00:55,42.805,6.029,4330,1995,191.537,58.581,13.292
2019-06-23T00:03:55,42.805,6.029,4330,1995,191.671,58.621,13.292
2019-06-23T00:06:55,42.805,6.029,4330,1995,191.798,58.659,13.292
2019-06-23T00:09:55,42.805,6.029,4330,1995,191.706,58.631,13.292
2019-06-23T00:12:55,42.805,6.029,4330,1995,191.754,58.645,13.291
2019-06-23T00:15:55,42.805,6.029,4330,1995,191.807,58.662,13.291
2019-06-23T00:21:55,42.805,6.029,4330,1995,191.866,58.677,13.289
2019-06-23T00:24:55,42.805,6.029,4330,1995,191.959,58.710,13.293
2019-06-23T00:27:55,42.805,6.029,4330,1995,192.010,58.728,13.294
2019-06-23T00:30:55,42.805,6.029,4330,1995,191.971,58.716,13.295
2019-06-23T00:33:55,42.805,6.029,4330,1995,192.002,58.725,13.294
2019-06-23T00:36:55,42.805,6.029,4330,1995,191.996,58.722,13.293
2019-06-23T00:39:55,42.805,6.029,4330,1995,191.994,58.721,13.293
2019-06-23T00:42:55,42.805,6.029,4330,1995,192.035,58.734,13.293
2019-06-23T00:45:55,42.805,6.029,4330,1995,192.084,58.750,13.294
2019-06-23T00:48:55,42.805,6.029,4330,1995,192.098,58.754,13.294
2019-06-23T00:51:55,42.805,6.029,4330,1995,192.129,58.763,13.294
2019-06-23T00:54:55,42.805,6.029,4330,1995,192.104,58.755,13.293
2019-06-23T00:57:55,42.805,6.029,4330,1995,192.108,58.756,13.293
2019-06-23T01:00:55,42.805,6.029,4330,1995,192.361,58.834,13.293
2019-06-23T01:03:55,42.805,6.029,4330,1995,192.361,58.833,13.293
2019-06-23T01:06:55,42.805,6.029,4330,1995,192.319,58.820,13.293
2019-06-23T01:09:55,42.805,6.029,4330,1995,192.363,58.833,13.292
2019-06-23T01:12:55,42.805,6.029,4330,1995,192.431,58.853,13.292
2019-06-23T01:15:55,42.805,6.029,4330,1995,192.459,58.862,13.292
2019-06-23T01:18:55,42.805,6.029,4330,1995,192.436,58.855,13.292
2019-06-23T01:21:55,42.805,6.029,4330,1995,192.441,58.857,13.292
2019-06-23T01:24:55,42.805,6.029,4330,1995,192.439,58.856,13.293
2019-06-23T01:27:55,42.805,6.029,4330,1995,192.507,58.878,13.293
2019-06-23T01:30:55,42.805,6.029,4330,1995,192.486,58.871,13.293
2019-06-23T01:33:55,42.805,6.029,4330,1995,192.455,58.862,13.293
2019-06-23T01:36:55,42.805,6.029,4330,1995,192.451,58.861,13.293
2019-06-23T01:39:55,42.805,6.029,4330,1995,192.437,58.858,13.294
2019-06-23T01:42:55,42.805,6.029,4330,1995,192.432,58.855,13.293
2019-06-23T01:45:55,42.805,6.029,4330,1995,192.503,58.878,13.294
2019-06-23T01:48:55,42.805,6.029,4330,1995,192.525,58.884,13.294
2019-06-23T01:51:55,42.805,6.029,4330,1995,192.461,58.866,13.295
2019-06-23T01:54:55,42.805,6.029,4330,1995,192.468,58.868,13.295
2019-06-23T01:57:55,42.805,6.029,4330,1995,192.466,58.868,13.295
2019-06-23T02:00:55,42.805,6.029,4330,1995,192.427,58.855,13.294
2019-06-23T02:03:55,42.805,6.029,4330,1995,192.457,58.863,13.294
2019-06-23T02:06:55,42.805,6.029,4330,1995,192.496,58.877,13.295
2019-06-23T02:09:55,42.805,6.029,4330,1995,192.585,58.901,13.292
2019-06-23T02:12:55,42.805,6.029,4330,1995,192.577,58.900,13.294
2019-06-23T02:15:55,42.805,6.029,4330,1995,192.623,58.916,13.295
2019-06-23T02:18:55,42.805,6.029,4330,1995,192.540,58.890,13.294
2019-06-23T02:21:55,42.805,6.029,4330,1995,192.631,58.916,13.293
2019-06-23T02:24:55,42.805,6.029,4330,1995,192.734,58.950,13.295
2019-06-23T02:27:55,42.805,6.029,4330,1995,192.637,58.919,13.294
2019-06-23T02:30:55,42.805,6.029,4330,1995,192.716,58.942,13.293
2019-06-23T02:33:55,42.805,6.029,4330,1995,192.686,58.935,13.295
2019-06-23T02:36:55,42.805,6.029,4330,1995,192.671,58.932,13.296
2019-06-23T02:39:55,42.805,6.029,4330,1995,192.570,58.900,13.296
2019-06-23T02:42:55,42.805,6.029,4330,1995,192.653,58.925,13.295
2019-06-23T02:45:55,42.805,6.029,4330,1995,192.650,58.922,13.293
2019-06-23T02:48:55,42.805,6.029,4330,1995,192.786,58.963,13.293
2019-06-23T02:57:55,42.805,6.029,4330,1995,192.644,58.916,13.290
2019-06-23T03:00:55,42.805,6.029,4330,1995,192.651,58.920,13.291
2019-06-23T03:03:55,42.805,6.029,4330,1995,192.698,58.936,13.293
2019-06-23T03:06:55,42.805,6.029,4330,1995,192.727,58.946,13.293
2019-06-23T03:09:55,42.805,6.029,4330,1995,192.742,58.951,13.294
2019-06-23T03:12:55,42.805,6.029,4330,1995,192.728,58.946,13.293
2019-06-23T03:15:55,42.805,6.029,4330,1995,192.774,58.960,13.293
2019-06-23T03:18:55,42.805,6.029,4330,1995,192.748,58.953,13.294
2019-06-23T03:21:55,42.805,6.029,4330,1995,192.778,58.963,13.294
2019-06-23T03:24:55,42.805,6.029,4330,1995,192.734,58.948,13.294
2019-06-23T03:27:55,42.805,6.029,4330,1995,192.697,58.937,13.294
2019-06-23T03:30:55,42.805,6.029,4330,1995,192.621,58.919,13.298
2019-06-23T03:33:55,42.805,6.029,4330,1995,192.514,58.882,13.294
2019-06-23T03:36:55,42.805,6.029,4330,1995,192.542,58.891,13.295
2019-06-23T03:39:55,42.805,6.029,4330,1995,192.656,58.924,13.294
2019-06-23T03:42:55,42.805,6.029,4330,1995,192.745,58.952,13.294
2019-06-23T03:45:55,42.805,6.029,4330,1995,192.796,58.967,13.294
2019-06-23T03:48:55,42.805,6.029,4330,1995,192.841,58.982,13.294
2019-06-23T03:51:55,42.805,6.029,4330,1995,192.726,58.946,13.294
2019-06-23T03:54:55,42.805,6.029,4330,1995,192.684,58.933,13.294
2019-06-23T03:57:55,42.805,6.029,4330,1995,192.647,58.927,13.298
2019-06-23T04:00:55,42.805,6.029,4330,1995,192.440,58.864,13.298
2019-06-23T04:03:55,42.805,6.029,4330,1995,192.376,58.843,13.297
2019-06-23T04:06:55,42.805,6.029,4330,1995,192.304,58.820,13.296
2019-06-23T04:09:55,42.805,6.029,4330,1995,192.363,58.838,13.297
2019-06-23T04:12:55,42.805,6.029,4330,1995,192.318,58.824,13.296
2019-06-23T04:15:55,42.805,6.029,4330,1995,192.283,58.813,13.296
2019-06-23T04:18:55,42.805,6.029,4330,1995,192.320,58.824,13.296
2019-06-23T04:21:55,42.805,6.029,4330,1995,192.306,58.819,13.295
2019-06-23T04:24:55,42.805,6.029,4330,1995,192.277,58.810,13.295
2019-06-23T04:27:55,42.805,6.029,4330,1995,192.071,58.748,13.296
2019-06-23T04:30:55,42.805,6.029,4330,1995,192.118,58.764,13.297
2019-06-23T04:33:55,42.805,6.029,4330,1995,192.079,58.749,13.295
2019-06-23T04:36:55,42.805,6.029,4330,1995,192.097,58.754,13.294
2019-06-23T04:39:55,42.805,6.029,4330,1995,192.166,58.775,13.294
2019-06-23T04:42:55,42.805,6.029,4330,1995,192.234,58.796,13.294
2019-06-23T04:45:55,42.805,6.029,4330,1995,192.205,58.787,13.294
2019-06-23T04:48:55,42.805,6.029,4330,1995,192.141,58.767,13.294
2019-06-23T04:51:55,42.805,6.029,4330,1995,192.081,58.750,13.295
2019-06-23T04:54:55,42.805,6.029,4330,1995,192.146,58.770,13.295
2019-06-23T04:57:55,42.805,6.029,4330,1995,192.074,58.749,13.295
2019-06-23T05:00:55,42.805,6.029,4330,1995,191.938,58.707,13.296
2019-06-23T05:03:55,42.805,6.029,4330,1995,191.933,58.706,13.296
2019-06-23T05:06:55,42.805,6.029,4330,1995,191.852,58.682,13.297
2019-06-23T05:09:55,42.805,6.029,4330,1995,191.935,58.705,13.295
2019-06-23T05:12:55,42.805,6.029,4330,1995,191.995,58.723,13.294
2019-06-23T05:15:55,42.805,6.029,4330,1995,191.920,58.702,13.296
2019-06-23T05:18:55,42.805,6.029,4330,1995,192.029,58.734,13.295
2019-06-23T05:21:55,42.805,6.029,4330,1995,192.034,58.737,13.296
2019-06-23T05:24:55,42.805,6.029,4330,1995,192.121,58.763,13.295
2019-06-23T05:30:55,42.805,6.029,4330,1995,192.103,58.751,13.290
2019-06-23T05:33:55,42.805,6.029,4330,1995,192.145,58.764,13.291
2019-06-23T05:36:55,42.805,6.029,4330,1995,192.127,58.762,13.293
2019-06-23T05:39:55,42.805,6.029,4330,1995,192.002,58.725,13.294
2019-06-23T05:42:55,42.805,6.029,4330,1995,192.003,58.727,13.295
2019-06-23T05:45:55,42.805,6.029,4330,1995,191.919,58.701,13.295
2019-06-23T05:48:55,42.805,6.029,4330,1995,191.816,58.671,13.296
2019-06-23T05:51:55,42.805,6.029,4330,1995,191.703,58.637,13.296
2019-06-23T05:54:55,42.805,6.029,4330,1995,191.477,58.575,13.302
2019-06-23T05:57:55,42.805,6.029,4330,1995,191.235,58.502,13.303
2019-06-23T06:00:55,42.805,6.029,4330,1995,191.000,58.426,13.300
2019-06-23T06:03:55,42.805,6.029,4330,1995,190.811,58.366,13.298
2019-06-23T06:06:55,42.805,6.029,4330,1995,190.864,58.379,13.296
2019-06-23T06:09:55,42.805,6.029,4330,1995,190.982,58.415,13.296
2019-06-23T06:12:55,42.805,6.029,4330,1995,191.202,58.483,13.296
2019-06-23T06:15:55,42.805,6.029,4330,1995,191.371,58.533,13.295
2019-06-23T06:18:55,42.805,6.029,4330,1995,191.475,58.565,13.296
2019-06-23T06:21:55,42.805,6.029,4330,1995,191.529,58.586,13.298
2019-06-23T06:24:55,42.805,6.029,4330,1995,191.576,58.600,13.299
2019-06-23T06:27:55,42.805,6.029,4330,1995,191.436,58.556,13.298
2019-06-23T06:30:55,42.805,6.029,4330,1995,191.187,58.482,13.299
2019-06-23T06:33:55,42.805,6.029,4330,1995,190.990,58.422,13.299
2019-06-23T06:36:55,42.805,6.029,4330,1995,190.938,58.403,13.297
2019-06-23T06:39:55,42.805,6.029,4330,1995,190.897,58.390,13.297
2019-06-23T06:42:55,42.805,6.029,4330,1995,191.383,58.537,13.295
2019-06-23T06:45:55,42.805,6.029,4330,1995,191.573,58.596,13.296
2019-06-23T06:48:55,42.805,6.029,4330,1995,191.729,58.643,13.295
2019-06-23T06:51:55,42.805,6.029,4330,1995,191.873,58.688,13.296
2019-06-23T06:54:55,42.805,6.029,4330,1995,191.865,58.687,13.297
2019-06-23T06:57:55,42.805,6.029,4330,1995,191.857,58.682,13.296
2019-06-23T07:00:55,42.805,6.029,4330,1995,191.777,58.659,13.297
2019-06-23T07:03:55,42.805,6.029,4330,1995,191.690,58.636,13.299
2019-06-23T07:06:55,42.805,6.029,4330,1995,191.466,58.567,13.299
2019-06-23T07:09:55,42.805,6.029,4330,1995,191.333,58.527,13.300
2019-06-23T07:12:55,42.805,6.029,4330,1995,191.044,58.436,13.297
2019-06-23T07:15:55,42.805,6.029,4330,1995,190.908,58.394,13.297
2019-06-23T07:18:55,42.805,6.029,4330,1995,191.204,58.483,13.296
2019-06-23T07:21:55,42.805,6.029,4330,1995,191.442,58.556,13.296
2019-06-23T07:24:55,42.805,6.029,4330,1995,191.749,58.649,13.295
2019-06-23T07:27:55,42.805,6.029,4330,1995,191.832,58.674,13.295
2019-06-23T07:30:55,42.805,6.029,4330,1995,191.866,58.683,13.294
2019-06-23T07:33:55,42.805,6.029,4330,1995,191.953,58.708,13.293
2019-06-23T07:36:55,42.805,6.029,4330,1995,192.086,58.749,13.293
2019-06-23T07:39:55,42.805,6.029,4330,1995,192.209,58.786,13.293
2019-06-23T07:42:55,42.805,6.029,4330,1995,192.258,58.802,13.293
2019-06-23T07:45:55,42.805,6.029,4330,1995,192.238,58.796,13.293
2019-06-23T07:48:55,42.805,6.029,4330,1995,192.297,58.813,13.292
2019-06-23T07:51:55,42.805,6.029,4330,1995,192.257,58.801,13.293
2019-06-23T07:54:55,42.805,6.029,4330,1995,192.256,58.802,13.293
2019-06-23T07:57:55,42.805,6.029,4330,1995,192.303,58.815,13.292
2019-06-23T08:00:55,42.805,6.029,4330,1995,192.307,58.816,13.292
2019-06-23T08:06:55,42.805,6.029,4330,1995,192.305,58.818,13.294
2019-06-23T08:09:55,42.805,6.029,4330,1995,192.348,58.833,13.296
2019-06-23T08:12:55,42.805,6.029,4330,1995,192.312,58.823,13.296
2019-06-23T08:15:55,42.805,6.029,4330,1995,192.223,58.795,13.296
2019-06-23T08:18:55,42.805,6.029,4330,1995,192.176,58.780,13.296
2019-06-23T08:21:55,42.805,6.029,4330,1995,192.188,58.784,13.296
2019-06-23T08:24:55,42.805,6.029,4330,1995,192.229,58.798,13.297
2019-06-23T08:27:55,42.805,6.029,4330,1995,192.276,58.813,13.297
2019-06-23T08:30:55,42.805,6.029,4330,1995,192.257,58.807,13.297
2019-06-23T08:33:55,42.805,6.029,4330,1995,192.264,58.809,13.297
2019-06-23T08:36:55,42.805,6.029,4330,1995,192.251,58.805,13.297
2019-06-23T08:39:55,42.805,6.029,4330,1995,192.197,58.788,13.297
2019-06-23T08:42:55,42.805,6.029,4330,1995,192.122,58.767,13.298
2019-06-23T08:45:55,42.805,6.029,4330,1995,192.075,58.750,13.296
2019-06-23T08:48:55,42.805,6.029,4330,1995,192.033,58.738,13.297
2019-06-23T08:51:55,42.805,6.029,4330,1995,192.018,58.733,13.297
2019-06-23T08:54:55,42.805,6.029,4330,1995,192.051,58.742,13.296
2019-06-23T08:57:55,42.805,6.029,4330,1995,192.153,58.772,13.295
2019-06-23T09:00:55,42.805,6.029,4330,1995,192.279,58.808,13.293
2019-06-23T09:03:55,42.805,6.029,4330,1995,192.266,58.806,13.295
2019-06-23T09:06:55,42.805,6.029,4330,1995,192.283,58.811,13.294
2019-06-23T09:09:55,42.805,6.029,4330,1995,192.185,58.782,13.295
2019-06-23T09:12:55,42.805,6.029,4330,1995,192.171,58.779,13.296
2019-06-23T09:15:55,42.805,6.029,4330,1995,192.145,58.770,13.295
2019-06-23T09:18:55,42.805,6.029,4330,1995,192.176,58.778,13.294
2019-06-23T09:21:55,42.805,6.029,4330,1995,192.191,58.783,13.294
2019-06-23T09:24:55,42.805,6.029,4330,1995,192.137,58.768,13.296
2019-06-23T09:27:55,42.805,6.029,4330,1995,191.992,58.724,13.296
2019-06-23T09:30:55,42.805,6.029,4330,1995,191.926,58.708,13.299
2019-06-23T09:33:55,42.805,6.029,4330,1995,191.823,58.677,13.299
2019-06-23T09:36:55,42.805,6.029,4330,1995,191.833,58.676,13.296
2019-06-23T09:39:55,42.805,6.029,4330,1995,191.827,58.674,13.297
2019-06-23T09:42:55,42.805,6.029,4330,1995,191.898,58.695,13.295
2019-06-23T09:45:55,42.805,6.029,4330,1995,191.904,58.697,13.296
2019-06-23T09:48:55,42.805,6.029,4330,1995,191.840,58.678,13.296
2019-06-23T09:51:55,42.805,6.029,4330,1995,191.940,58.710,13.297
2019-06-23T09:54:55,42.805,6.029,4330,1995,191.953,58.714,13.297
2019-06-23T09:57:55,42.805,6.029,4330,1995,191.871,58.689,13.297
2019-06-23T10:00:55,42.805,6.029,4330,1995,191.794,58.666,13.298
2019-06-23T10:03:55,42.805,6.029,4330,1995,191.771,58.659,13.298
2019-06-23T10:06:55,42.805,6.029,4330,1995,191.748,58.653,13.299
2019-06-23T10:09:55,42.805,6.029,4330,1995,191.622,58.619,13.302
2019-06-23T10:12:55,42.805,6.029,4330,1995,191.428,58.561,13.303
2019-06-23T10:15:55,42.805,6.029,4330,1995,191.340,58.537,13.305
2019-06-23T10:18:55,42.805,6.029,4330,1995,191.175,58.484,13.303
2019-06-23T10:21:55,42.805,6.029,4330,1995,191.089,58.455,13.301
2019-06-23T10:24:55,42.805,6.029,4330,1995,190.986,58.422,13.300
2019-06-23T10:27:55,42.805,6.029,4330,1995,190.954,58.420,13.306
2019-06-23T10:30:55,42.805,6.029,4330,1995,190.866,58.390,13.304
2019-06-23T10:33:55,42.805,6.029,4330,1995,190.712,58.340,13.301
2019-06-23T10:42:55,42.805,6.029,4330,1995,190.909,58.391,13.294
2019-06-23T10:45:55,42.805,6.029,4330,1995,190.813,58.370,13.301
2019-06-23T10:48:55,42.805,6.029,4330,1995,190.705,58.336,13.300
2019-06-23T10:51:55,42.805,6.029,4330,1995,190.715,58.340,13.301
2019-06-23T10:54:55,42.805,6.029,4330,1995,190.695,58.338,13.304
2019-06-23T10:57:55,42.805,6.029,4330,1995,190.603,58.309,13.303
2019-06-23T11:00:55,42.805,6.029,4330,1995,190.727,58.348,13.304
2019-06-23T11:03:55,42.805,6.029,4330,1995,190.630,58.320,13.306
2019-06-23T11:06:55,42.805,6.029,4330,1995,190.633,58.319,13.304
2019-06-23T11:09:55,42.805,6.029,4330,1995,190.736,58.352,13.305
2019-06-23T11:12:55,42.805,6.029,4330,1995,190.901,58.404,13.306
2019-06-23T11:15:55,42.805,6.029,4330,1995,190.799,58.370,13.304
2019-06-23T11:18:55,42.805,6.029,4330,1995,190.761,58.360,13.306
2019-06-23T11:21:55,42.805,6.029,4330,1995,190.798,58.368,13.303
2019-06-23T11:24:55,42.805,6.029,4330,1995,190.655,58.324,13.303
2019-06-23T11:27:55,42.805,6.029,4330,1995,190.617,58.315,13.305
2019-06-23T11:30:55,42.805,6.029,4330,1995,190.483,58.274,13.305
2019-06-23T11:33:55,42.805,6.029,4330,1995,190.298,58.219,13.306
2019-06-23T11:36:55,42.805,6.029,4330,1995,190.321,58.228,13.307
2019-06-23T11:39:55,42.805,6.029,4330,1995,190.223,58.198,13.307
2019-06-23T11:42:55,42.805,6.029,4330,1995,190.091,58.159,13.309
2019-06-23T11:45:55,42.805,6.029,4330,1995,189.990,58.125,13.306
2019-06-23T11:48:55,42.805,6.029,4330,1995,189.975,58.117,13.303
2019-06-23T11:51:55,42.805,6.029,4330,1995,190.234,58.201,13.307
2019-06-23T11:54:55,42.805,6.029,4330,1995,190.503,58.277,13.302
2019-06-23T11:57:55,42.805,6.029,4330,1995,190.565,58.300,13.306
2019-06-23T12:00:55,42.805,6.029,4330,1995,190.396,58.247,13.304
2019-06-23T12:03:55,42.805,6.029,4330,1995,190.298,58.218,13.305
2019-06-23T12:06:55,42.805,6.029,4330,1995,190.222,58.196,13.306
2019-06-23T12:09:55,42.805,6.029,4330,1995,190.232,58.198,13.305
2019-06-23T12:12:55,42.805,6.029,4330,1995,190.242,58.199,13.304
2019-06-23T12:15:55,42.805,6.029,4330,1995,190.395,58.248,13.305
2019-06-23T12:18:55,42.805,6.029,4330,1995,190.392,58.245,13.304
2019-06-23T12:21:55,42.805,6.029,4330,1995,190.491,58.276,13.305
2019-06-23T12:24:55,42.805,6.029,4330,1995,190.543,58.289,13.302
2019-06-23T12:27:55,42.805,6.029,4330,1995,190.583,58.303,13.303
2019-06-23T12:30:55,42.805,6.029,4330,1995,190.583,58.308,13.308
2019-06-23T12:33:55,42.805,6.029,4330,1995,190.499,58.279,13.305
2019-06-23T12:36:55,42.805,6.029,4330,1995,190.456,58.268,13.306
2019-06-23T12:39:55,42.805,6.029,4330,1995,190.566,58.298,13.304
2019-06-23T12:42:55,42.805,6.029,4330,1995,190.596,58.310,13.305
2019-06-23T12:45:55,42.805,6.029,4330,1995,190.583,58.305,13.305
2019-06-23T12:48:55,42.805,6.029,4330,1995,190.642,58.324,13.306
2019-06-23T12:51:55,42.805,6.029,4330,1995,190.693,58.340,13.306
2019-06-23T12:54:55,42.805,6.029,4330,1995,190.642,58.326,13.307
2019-06-23T12:57:55,42.805,6.029,4330,1995,190.649,58.326,13.305
2019-06-23T13:00:55,42.805,6.029,4330,1995,190.719,58.347,13.305
2019-06-23T13:03:55,42.805,6.029,4330,1995,190.621,58.317,13.305
2019-06-23T13:06:55,42.805,6.029,4330,1995,190.786,58.367,13.305
2019-06-23T13:09:55,42.805,6.029,4330,1995,190.777,58.366,13.307
2019-06-23T13:15:55,42.805,6.029,4330,1995,190.736,58.343,13.298
2019-06-23T13:18:55,42.805,6.029,4330,1995,190.759,58.349,13.298
2019-06-23T13:21:55,42.805,6.029,4330,1995,190.596,58.304,13.301
2019-06-23T13:24:55,42.805,6.029,4330,1995,190.681,58.332,13.302
2019-06-23T13:27:55,42.805,6.029,4330,1995,190.781,58.363,13.303
2019-06-23T13:30:55,42.805,6.029,4330,1995,190.772,58.362,13.304
2019-06-23T13:33:55,42.805,6.029,4330,1995,190.788,58.366,13.304
2019-06-23T13:36:55,42.805,6.029,4330,1995,190.876,58.393,13.303
2019-06-23T13:39:55,42.805,6.029,4330,1995,190.982,58.423,13.301
2019-06-23T13:42:55,42.805,6.029,4330,1995,190.971,58.421,13.303
2019-06-23T13:45:55,42.805,6.029,4330,1995,190.945,58.414,13.303
2019-06-23T13:48:55,42.805,6.029,4330,1995,190.909,58.400,13.302
2019-06-23T13:51:55,42.805,6.029,4330,1995,190.794,58.367,13.303
2019-06-23T13:54:55,42.805,6.029,4330,1995,190.589,58.305,13.303
2019-06-23T13:57:55,42.805,6.029,4330,1995,190.548,58.290,13.301
2019-06-23T14:00:55,42.805,6.029,4330,1995,190.506,58.274,13.299
2019-06-23T14:03:55,42.805,6.029,4330,1995,190.691,58.333,13.301
2019-06-23T14:06:55,42.805,6.029,4330,1995,190.642,58.317,13.300
2019-06-23T14:09:55,42.805,6.029,4330,1995,190.483,58.269,13.301
2019-06-23T14:12:55,42.805,6.029,4330,1995,190.604,58.305,13.300
2019-06-23T14:15:55,42.805,6.029,4330,1995,190.633,58.316,13.302
2019-06-23T14:18:55,42.805,6.029,4330,1995,190.711,58.339,13.301
2019-06-23T14:21:55,42.805,6.029,4330,1995,190.824,58.377,13.304
2019-06-23T14:24:55,42.805,6.029,4330,1995,190.629,58.317,13.303
2019-06-23T14:27:55,42.805,6.029,4330,1995,190.739,58.350,13.303
2019-06-23T14:30:55,42.805,6.029,4330,1995,190.708,58.341,13.303
2019-06-23T14:33:55,42.805,6.029,4330,1995,190.542,58.290,13.303
2019-06-23T14:36:55,42.805,6.029,4330,1995,190.521,58.285,13.304
2019-06-23T14:39:55,42.805,6.029,4330,1995,190.365,58.237,13.304
2019-06-23T14:42:55,42.805,6.029,4330,1995,190.392,58.241,13.301
2019-06-23T14:45:55,42.805,6.029,4330,1995,190.626,58.315,13.303
2019-06-23T14:48:55,42.805,6.029,4330,1995,190.692,58.338,13.304
2019-06-23T14:51:55,42.805,6.029,4330,1995,190.761,58.354,13.301
2019-06-23T14:54:55,42.805,6.029,4330,1995,191.012,58.430,13.300
2019-06-23T14:57:55,42.805,6.029,4330,1995,191.229,58.496,13.300
2019-06-23T15:00:55,42.805,6.029,4330,1995,191.226,58.498,13.302
2019-06-23T15:03:55,42.805,6.029,4330,1995,191.102,58.458,13.301
2019-06-23T15:06:55,42.805,6.029,4330,1995,190.884,58.387,13.297
2019-06-23T15:09:55,42.805,6.029,4330,1995,190.939,58.404,13.298
2019-06-23T15:12:55,42.805,6.029,4330,1995,190.900,58.393,13.298
2019-06-23T15:15:55,42.805,6.029,4330,1995,190.745,58.347,13.299
2019-06-23T15:18:55,42.805,6.029,4330,1995,190.798,58.364,13.300
2019-06-23T15:21:55,42.805,6.029,4330,1995,190.673,58.325,13.299
2019-06-23T15:24:55,42.805,6.029,4330,1995,190.600,58.304,13.300
2019-06-23T15:27:55,42.805,6.029,4330,1995,190.771,58.356,13.300
2019-06-23T15:30:55,42.805,6.029,4330,1995,190.765,58.350,13.297
2019-06-23T15:33:55,42.805,6.029,4330,1995,190.818,58.361,13.293
2019-06-23T15:36:55,42.805,6.029,4330,1995,190.841,58.369,13.293
2019-06-23T15:39:55,42.805,6.029,4330,1995,190.999,58.417,13.293
2019-06-23T15:42:55,42.805,6.029,4330,1995,191.068,58.438,13.294
2019-06-23T15:45:55,42.805,6.029,4330,1995,191.063,58.438,13.295
2019-06-23T15:51:55,42.805,6.029,4330,1995,190.891,58.380,13.290
2019-06-23T15:54:55,42.805,6.029,4330,1995,190.874,58.380,13.294
2019-06-23T15:57:55,42.805,6.029,4330,1995,191.147,58.465,13.296
2019-06-23T16:00:55,42.805,6.029,4330,1995,191.112,58.455,13.296
2019-06-23T16:03:55,42.805,6.029,4330,1995,190.857,58.378,13.297
2019-06-23T16:06:55,42.805,6.029,4330,1995,190.648,58.316,13.298
2019-06-23T16:09:55,42.805,6.029,4330,1995,190.621,58.307,13.297
2019-06-23T16:12:55,42.805,6.029,4330,1995,190.831,58.371,13.298
2019-06-23T16:15:55,42.805,6.029,4330,1995,190.553,58.286,13.297
2019-06-23T16:18:55,42.805,6.029,4330,1995,190.699,58.330,13.297
2019-06-23T16:21:54,42.805,6.029,4330,1995,190.683,58.326,13.298
2019-06-23T16:24:54,42.805,6.029,4330,1995,190.583,58.294,13.297
2019-06-23T16:27:54,42.805,6.029,4330,1995,190.663,58.320,13.298
2019-06-23T16:30:54,42.805,6.029,4330,1995,190.782,58.357,13.298
2019-06-23T16:33:54,42.805,6.029,4330,1995,190.757,58.348,13.297
2019-06-23T16:36:54,42.805,6.029,4330,1995,190.688,58.326,13.297
2019-06-23T16:39:54,42.805,6.029,4330,1995,190.596,58.298,13.296
2019-06-23T16:42:54,42.805,6.029,4330,1995,190.580,58.292,13.296
2019-06-23T16:45:54,42.805,6.029,4330,1995,190.507,58.270,13.296
2019-06-23T16:48:54,42.805,6.029,4330,1995,190.559,58.285,13.295
2019-06-23T16:51:54,42.805,6.029,4330,1995,190.616,58.301,13.294
2019-06-23T16:54:54,42.805,6.029,4330,1995,190.760,58.346,13.295
2019-06-23T16:57:54,42.805,6.029,4330,1995,190.809,58.360,13.294
2019-06-23T17:00:54,42.805,6.029,4330,1995,190.773,58.352,13.296
2019-06-23T17:03:54,42.805,6.029,4330,1995,190.664,58.318,13.296
2019-06-23T17:06:54,42.805,6.029,4330,1995,190.853,58.374,13.294
2019-06-23T17:09:54,42.805,6.029,4330,1995,190.619,58.301,13.293
2019-06-23T17:12:54,42.805,6.029,4330,1995,190.753,58.343,13.294
2019-06-23T17:15:54,42.805,6.029,4330,1995,190.593,58.295,13.295
2019-06-23T17:18:54,42.805,6.029,4330,1995,190.698,58.329,13.296
2019-06-23T17:21:54,42.805,6.029,4330,1995,190.840,58.371,13.295
2019-06-23T17:24:54,42.805,6.029,4330,1995,190.932,58.398,13.294
2019-06-23T17:27:54,42.805,6.029,4330,1995,191.172,58.472,13.295
2019-06-23T17:30:54,42.805,6.029,4330,1995,191.113,58.454,13.295
2019-06-23T17:33:54,42.805,6.029,4330,1995,191.089,58.444,13.293
2019-06-23T17:36:54,42.805,6.029,4330,1995,191.068,58.438,13.293
2019-06-23T17:39:54,42.805,6.029,4330,1995,191.456,58.557,13.293
2019-06-23T17:42:54,42.805,6.029,4330,1995,191.496,58.568,13.292
2019-06-23T17:45:54,42.805,6.029,4330,1995,191.493,58.568,13.293
2019-06-23T17:48:54,42.805,6.029,4330,1995,191.560,58.588,13.293
2019-06-23T17:51:54,42.805,6.029,4330,1995,191.729,58.640,13.293
2019-06-23T17:54:54,42.805,6.029,4330,1995,191.710,58.635,13.294
2019-06-23T17:57:54,42.805,6.029,4330,1995,191.706,58.635,13.294
2019-06-23T18:00:54,42.805,6.029,4330,1995,191.805,58.664,13.294
2019-06-23T18:03:54,42.805,6.029,4330,1995,191.815,58.668,13.294
2019-06-23T18:06:54,42.805,6.029,4330,1995,191.834,58.672,13.293
2019-06-23T18:09:54,42.805,6.029,4330,1995,191.774,58.655,13.294
2019-06-23T18:12:54,42.805,6.029,4330,1995,191.792,58.660,13.294
2019-06-23T18:15:54,42.805,6.029,4330,1995,191.794,58.663,13.296
2019-06-23T18:18:54,42.805,6.029,4330,1995,191.930,58.704,13.295
2019-06-23T18:27:54,42.805,6.029,4330,1995,191.741,58.638,13.289
2019-06-23T18:30:54,42.805,6.029,4330,1995,191.688,58.626,13.292
2019-06-23T18:33:54,42.805,6.029,4330,1995,191.675,58.623,13.293
2019-06-23T18:36:54,42.805,6.029,4330,1995,191.818,58.667,13.293
2019-06-23T18:39:54,42.805,6.029,4330,1995,191.933,58.702,13.293